Flag for Switzerland Weather past 2 weeks in Schaffhausen, Schaffhausen, Switzerland

Now
60 °F

Cool.


Feels Like: 60 °F
Forecast: 53 / 68 °F
Wind: 5 mph from North

Location: Zurich-Kloten

Current Time: Oct 1, 2014 at 10:25:51 AM

Latest Report: Oct 1, 2014 at 9:00 AM


Visibility: N/A

Pressure: 30.30 "Hg

Humidity: 94%

Dew point: 58 °F

Location of SchaffhausenLocation

Historic Weather in Schaffhausen — Graph

°F

Schaffhausen temperature yesterday

Maximum temperature yesterday: 65 °F (at 2:00 PM)
Minimum temperature yesterday: 57 °F (at 5:00 AM)
Average temperature yesterday: 61 °F

Past Weeks' High & Low Weather Summary

 TemperatureHumidityPressure
High74 °F (Sep 17, 5:00 PM)100% (Sep 18, 5:00 AM)30.36 "Hg (Sep 18, 5:00 AM)
Low38 °F (Sep 24, 7:00 AM)46% (Sep 26, 5:00 PM)29.81 "Hg (Sep 17, 5:00 PM)
Average58 °F84%30.12 "Hg
* Reported Sep 16 9:00 AM — Oct 1 9:00 AM, Schaffhausen, Weather by CustomWeather, © 2014

Note: Actual official high and low records may vary slightly from our data, if they occured in-between our weather recording intervals... More about our weather records

Advertising

Schaffhausen weather history for previous 24 hours

 ConditionsComfort  
Time TempWeatherWind HumidityBarometerVisibility
9:00 AM
Oct 1
60 °FCool.5 mph94%30.30 "HgN/A
8:00 AM59 °FLow clouds.2 mph97%30.29 "Hg2 mi
7:00 AM59 °FCool.1 mph98%30.29 "HgN/A
6:00 AM59 °FCool.1 mph97%30.29 "HgN/A
5:00 AM59 °FFog.1 mph98%30.30 "Hg3 mi
4:00 AM59 °FCool.1 mph96%30.30 "HgN/A
3:00 AM58 °FCool.No wind98%30.30 "HgN/A
2:00 AM58 °FFog.1 mph97%30.31 "Hg4 mi
1:00 AM58 °FCool.1 mph97%30.30 "HgN/A
12:00 AM58 °FCool.2 mph97%30.32 "HgN/A
11:00 PM
Sep 30
58 °FFog.2 mph98%30.32 "Hg4 mi
10:00 PM58 °FCool.2 mph98%30.32 "HgN/A
9:00 PM60 °FCool.3 mph95%30.31 "HgN/A
8:00 PM61 °FFog.2 mph92%30.30 "Hg6 mi
7:00 PM62 °FCool.5 mph88%30.29 "HgN/A
6:00 PM64 °FMild.3 mph86%30.29 "HgN/A
5:00 PM64 °FOvercast.6 mph85%30.29 "Hg6 mi
4:00 PM65 °FMild.6 mph75%30.29 "HgN/A
3:00 PM65 °FMild.5 mph79%30.29 "HgN/A
2:00 PM65 °FDrizzle. Overcast.5 mph79%30.29 "Hg9 mi
1:00 PM65 °FMild.5 mph82%30.30 "HgN/A
12:00 PM64 °FMild.5 mph81%30.30 "HgN/A
11:00 AM63 °FOvercast.3 mph83%30.30 "Hg11 mi
10:00 AM62 °FCool.3 mph83%30.31 "HgN/A
Weather by CustomWeather, © 2014

See weather overviewHow to use our weather pages